Location: Lake Arresoe
(56.0000°N, 12.5000°E)
Time: 19:40:57
(UTC+02:00)

ERS 2 DEB - Visible Passes

Search period start: 11 August 2022 00:00
Search period end: 21 August 2022 00:00
Orbit: 751 x 758 km, 98.2° (Epoch: 10 August)

Date Brightness Start Highest point End Pass type
(mag) Time Alt. Az. Time Alt. Az. Time Alt. Az.
13 Aug ? 04:34:52 10° ENE 04:36:36 12° E 04:38:21 10° ESE visible
15 Aug ? 04:52:59 10° NE 04:56:08 16° E 04:59:17 10° SE visible
18 Aug ? 04:33:32 10° ENE 04:35:11 11° E 04:36:50 10° E visible
20 Aug ? 04:51:34 10° NE 04:54:42 16° E 04:57:48 10° ESE visible
